Temperature
15 15 15 16 16 17 18 21 23 23 24 24 24 24 24 23 22 19 18 18 17 17 17 16 16 16 16 16 16 16 16 16 16 16 15 15 15 15 15 15 15 15 15 15 15 15 15 15 15
14 14 15 16 16 17 19 21 22 23 23 23 22 23 23 21 20 18 17 17 17 17 16 16 16 16 16 16 16 15 15 15 15 15 15 15 15 15 15 15 15 15 15 15 15 15 15 15 15
14 14 16 16 17 18 20 22 22 22 22 22 22 22 22 21 19 18 17 17 16 16 16 16 16 16 16 16 16 15 15 15 15 15 15 15 15 15 15 15 15 15 15 15 15 15 15 15 15
14 15 16 16 17 19 21 22 22 21 21 21 22 21 20 19 18 18 17 16 16 15 15 16 16 16 16 15 15 15 15 15 15 15 15 15 15 15 15 15 15 15 15 15 15 15 15 15 15
14 15 16 16 17 20 21 22 22 21 21 21 21 21 19 18 18 17 16 16 15 15 15 15 15 15 15 15 15 15 15 15 15 15 15 15 15 14 14 14 14 15 15 15 15 15 15 15 15
14 16 15 16 18 20 21 22 22 21 21 21 21 20 18 18 17 16 16 15 15 15 15 15 15 15 15 15 15 15 15 15 15 15 14 14 14 14 14 14 14 14 14 15 15 15 15 15 14
15 15 16 17 18 20 21 21 21 20 20 21 20 20 18 17 16 16 16 15 15 14 15 14 14 14 14 15 14 15 15 14 14 14 14 14 14 14 14 14 14 14 14 14 14 14 14 14 14
14 15 16 17 18 19 20 20 20 20 20 20 20 19 17 16 16 15 15 15 14 14 14 14 14 14 14 14 14 14 14 14 14 14 14 14 14 14 14 14 14 14 14 14 14 14 14 14 14
14 14 15 17 18 19 19 19 19 19 19 19 19 18 17 16 15 15 15 14 14 14 14 14 14 14 14 14 14 14 14 14 14 13 14 13 13 13 14 14 14 14 14 14 14 14 14 14 14
14 13 15 17 18 18 19 19 19 18 18 18 18 17 16 16 15 14 14 14 14 13 13 13 13 13 13 13 14 13 13 13 13 13 13 13 13 13 13 13 13 13 13 13 14 13 13 13 13
14 13 15 17 17 17 17 18 18 17 16 18 17 16 16 15 14 14 14 14 14 13 13 13 13 13 13 13 13 13 13 13 13 13 13 13 13 13 13 13 13 13 13 13 13 13 13 13 13
14 14 15 16 16 16 16 17 17 17 17 17 17 16 15 15 14 14 14 13 13 13 13 13 13 13 13 13 13 13 13 12 12 12 12 12 12 12 13 13 13 13 13 13 13 13 13 13 13
13 14 15 15 15 15 15 15 16 16 16 17 16 16 15 15 14 14 13 13 13 13 13 13 13 13 13 12 12 12 12 12 12 12 12 12 12 12 12 12 12 12 12 12 12 12 12 12 12
14 14 14 14 14 14 14 14 15 15 16 16 16 15 15 14 14 13 13 13 13 13 13 13 12 12 12 12 12 12 12 12 12 12 12 12 12 12 12 12 12 12 12 12 12 12 12 12 12
13 12 13 13 14 14 14 13 13 15 15 15 15 15 14 14 14 13 13 13 12 12 12 12 12 12 12 12 12 12 12 12 12 12 12 12 12 12 12 12 12 12 12 12 12 12 12 12 12
12 11 11 13 13 14 12 11 14 15 15 15 15 15 14 14 13 13 13 12 12 12 12 12 12 12 12 12 12 12 12 12 12 12 12 12 12 12 11 11 11 11 12 12 12 12 12 11 11
10 10 11 12 13 13 12 11 14 15 15 15 15 15 14 14 13 13 13 12 12 12 12 12 12 12 12 12 12 12 11 11 11 11 11 11 12 11 11 11 11 11 11 11 11 11 11 11 11
9 10 11 12 13 13 12 12 13 14 15 14 15 14 14 14 13 13 13 12 12 12 12 12 12 12 12 11 11 11 11 11 11 11 11 11 11 11 11 11 11 11 11 11 11 11 11 11 11
11 11 11 12 13 12 12 12 12 13 13 13 14 14 14 14 13 13 12 12 12 11 11 11 11 11 11 11 11 11 11 11 11 11 11 11 11 11 11 11 11 11 11 11 11 11 11 11 11
10 9 10 11 12 12 11 11 12 13 13 13 14 14 14 13 13 13 12 12 11 11 11 11 11 11 11 11 11 11 11 11 11 11 11 11 11 11 11 11 11 11 10 10 10 10 10 10 10
9 9 9 10 11 11 11 10 11 12 13 13 13 13 13 13 12 12 12 11 11 11 11 11 11 11 11 11 11 10 10 10 10 10 10 10 10 11 11 10 10 10 10 10 10 10 10 10 10
8 9 10 10 9 8 10 8 11 12 12 12 12 13 12 12 12 12 11 11 11 10 10 10 10 11 11 11 11 10 10 10 10 10 10 10 10 10 10 10 10 10 10 10 10 10 10 10 10
8 9 9 9 8 8 9 8 9 12 11 11 11 12 12 12 11 11 11 11 10 10 10 10 10 10 10 10 10 10 10 10 10 10 10 10 10 10 10 10 10 10 10 10 10 10 10 10 10
8 8 8 8 7 6 8 8 9 10 11 11 11 12 11 11 11 10 10 10 10 10 10 10 9 10 10 10 10 10 10 10 10 10 9 10 9 10 10 10 10 10 10 10 10 9 9 9 9
7 6 5 5 5 6 9 9 9 10 11 11 10 11 11 10 10 10 10 9 9 9 9 9 9 9 9 10 10 10 10 10 10 10 9 9 9 9 10 9 9 10 10 9 9 9 9 9 9
5 5 5 5 6 7 9 8 8 10 10 10 10 10 10 9 9 9 9 9 9 9 9 8 8 9 9 9 9 9 9 9 9 9 9 9 9 9 9 9 9 9 9 9 9 9 9 9 8
5 5 6 5 6 6 7 8 8 9 9 9 9 9 9 8 8 8 8 8 8 8 8 8 8 8 8 9 9 9 9 8 9 9 9 9 9 9 9 9 9 9 9 9 9 9 8 8 8
5 5 5 4 5 6 7 7 7 7 7 7 7 8 8 8 7 7 7 7 7 7 7 7 7 8 8 8 8 8 8 8 8 8 8 8 8 8 8 8 8 8 8 8 8 8 8 8 8
4 4 4 4 5 5 6 6 7 7 7 6 6 7 7 6 6 6 6 6 6 6 6 7 7 7 7 7 7 7 7 8 8 8 8 8 8 8 8 8 8 8 8 8 8 8 7 7 7
3 3 3 3 4 5 5 5 6 6 6 6 6 6 6 5 5 5 5 5 5 5 6 6 6 6 7 7 7 7 7 7 7 7 7 7 7 7 8 7 7 7 7 7 7 7 7 7 7
Wind_Speed
11 12 7 2 3 5 8 8 6 2 0 2 5 4 5 4 4 8 5 8 13 15 16 17 15 14 14 13 12 11 11 10 10 9 9 9 9 9 9 9 10 10 10 10 10 11 11 12 13
10 6 4 3 4 7 8 10 7 3 3 5 5 4 3 4 7 8 6 9 12 14 16 15 15 14 13 13 12 11 11 10 9 9 9 8 9 9 9 9 10 10 10 11 11 11 12 13 13
10 6 4 4 6 7 5 3 4 3 6 4 2 1 2 4 6 6 7 9 10 12 15 16 16 14 13 12 11 11 10 10 9 9 9 9 8 9 9 9 10 10 10 11 11 12 12 12 12
4 3 4 6 12 10 7 2 3 4 5 2 3 2 2 5 5 7 9 9 10 11 14 16 15 14 13 12 11 11 10 10 10 9 9 9 9 9 9 9 9 10 10 11 11 12 12 12 10
4 4 6 8 13 11 6 2 1 4 6 5 4 3 3 5 9 10 8 8 9 10 13 15 15 13 13 12 12 11 10 10 10 9 9 9 9 9 9 9 9 10 10 10 11 11 11 11 9
4 4 6 11 12 11 7 4 4 5 6 6 5 3 3 6 8 8 7 7 9 10 12 14 14 13 13 13 12 11 11 10 10 9 9 9 9 9 9 8 9 9 10 10 11 11 10 10 9
5 5 9 11 10 9 7 5 5 6 6 6 5 4 5 6 7 7 6 7 8 10 10 11 12 12 12 12 11 11 11 10 10 10 9 9 9 9 8 8 9 9 9 10 10 11 10 10 9
5 4 9 11 12 10 4 3 3 4 4 2 3 3 5 7 8 6 6 6 7 8 9 9 10 11 10 10 11 11 11 11 11 10 10 10 10 9 8 9 9 9 9 9 10 10 11 10 9
5 6 10 10 8 5 2 3 3 1 2 2 2 1 6 10 8 7 5 5 6 7 7 8 8 9 10 10 10 10 11 12 12 11 11 10 9 8 8 8 9 9 9 9 10 10 10 10 8
6 9 12 6 5 4 2 3 3 3 5 5 4 4 8 9 8 7 7 7 7 7 7 7 8 8 8 9 10 9 9 10 10 10 10 8 8 8 8 9 9 9 9 9 10 10 10 9 7
8 10 9 8 6 5 4 4 3 5 7 7 7 7 8 8 8 8 7 7 7 7 7 7 7 8 7 6 8 7 8 8 8 9 9 8 8 8 8 8 8 8 8 7 8 8 7 7 7
10 12 11 8 5 5 6 5 5 8 6 2 4 7 8 8 8 9 8 8 7 7 8 7 7 7 7 6 6 6 5 6 6 8 8 7 6 5 6 6 6 7 6 6 6 6 6 7 7
16 13 12 9 7 7 8 9 8 10 6 3 2 4 7 9 8 7 7 7 6 7 7 8 8 7 7 6 6 6 5 5 7 7 7 7 5 4 5 5 5 5 6 6 5 5 5 6 6
10 11 12 10 10 9 10 11 10 10 6 6 6 6 7 8 8 7 7 7 7 7 7 7 8 7 7 6 5 5 5 6 7 7 8 7 7 6 5 4 4 5 5 6 5 5 4 5 5
10 11 13 12 12 9 7 12 15 11 8 8 8 7 7 7 7 8 8 8 8 8 7 7 7 7 7 7 6 6 6 7 6 7 9 8 8 7 6 4 4 5 5 6 5 5 5 5 5
9 10 11 11 12 10 9 15 11 9 10 10 9 8 7 7 7 7 7 8 8 7 8 7 7 7 7 6 6 5 6 6 6 7 9 9 9 9 6 4 4 6 6 5 3 3 3 4 4
9 11 14 11 12 11 12 11 7 9 10 10 8 8 7 7 7 7 7 7 8 8 8 7 7 7 7 7 5 6 6 6 6 7 7 9 10 10 8 5 5 7 5 3 3 3 4 5 4
10 12 12 12 10 11 13 11 7 6 8 9 8 8 7 7 7 7 7 7 7 7 7 7 7 7 7 6 5 4 5 5 5 5 6 9 9 9 8 6 6 6 4 3 3 4 4 5 5
11 12 13 11 7 10 13 14 11 8 8 9 8 7 7 6 6 6 6 7 7 7 7 8 7 7 6 5 5 5 5 5 4 4 7 8 9 9 8 6 5 5 4 5 5 5 6 5 5
14 14 14 9 8 8 10 12 10 9 10 9 8 7 6 5 5 6 6 7 7 7 7 7 7 8 7 6 5 4 5 4 4 4 6 8 8 9 8 6 5 5 4 5 5 6 4 4 4
14 13 12 8 5 6 6 9 11 9 8 8 7 6 5 6 6 6 7 6 6 6 7 7 7 7 7 7 5 5 4 3 3 4 4 5 8 8 8 7 6 6 5 5 6 7 6 5 3
12 9 9 8 5 5 7 6 9 10 10 10 8 6 5 5 5 5 6 6 6 5 5 6 7 7 7 8 7 8 6 5 4 4 4 4 7 7 8 8 7 6 5 6 6 6 5 6 5
7 6 8 8 6 6 7 6 6 8 9 9 7 6 6 5 5 4 5 5 5 5 5 5 7 7 6 7 8 8 6 4 4 5 5 5 4 6 7 8 7 6 5 6 6 6 6 5 5
5 5 6 6 4 8 11 9 5 6 8 8 7 6 5 4 4 3 4 5 4 4 4 5 6 6 7 6 7 8 8 8 7 7 6 5 4 4 6 7 6 6 5 6 7 6 6 5 5
4 3 3 5 6 8 8 7 4 2 4 5 6 6 5 4 4 3 3 4 4 4 4 5 6 6 7 7 6 7 8 8 9 8 7 6 5 4 5 5 5 5 5 7 7 6 5 5 5
6 5 4 4 5 3 6 6 2 2 4 5 6 5 5 5 4 3 3 3 3 4 4 4 5 6 6 6 6 6 6 5 5 6 6 6 5 5 5 5 5 5 6 7 6 5 5 5 5
4 5 4 3 2 3 4 4 2 5 6 6 5 4 3 4 4 3 3 2 2 3 3 3 4 5 6 6 6 5 5 5 5 5 5 4 4 5 6 5 5 5 6 6 6 5 5 5 5
3 2 2 3 2 3 4 4 3 4 3 4 4 3 2 4 4 3 2 2 2 1 2 2 3 4 5 5 5 5 5 5 5 5 5 5 5 5 6 6 5 5 5 6 6 5 5 6 5
2 2 2 3 3 2 2 1 4 4 4 4 4 4 4 5 4 3 3 2 2 2 2 3 2 3 4 5 5 5 5 5 5 5 5 5 5 6 6 6 6 6 6 6 6 6 6 7 5
1 1 1 2 3 3 1 1 7 9 7 6 6 6 6 6 5 4 4 3 3 3 3 3 2 3 3 4 5 5 5 5 5 5 5 5 5 5 6 6 6 6 6 6 6 6 6 6 6
Wind_Direction
284 261 248 240 237 230 236 239 242 225 270 16 21 357 351 15 46 108 134 104 114 126 135 140 138 136 134 132 131 130 127 125 123 120 116 110 107 109 115 111 108 107 106 106 107 106 105 102 99
279 261 249 233 234 228 233 225 230 203 99 65 42 357 348 63 77 106 113 108 118 125 135 140 138 138 137 136 135 136 133 132 130 126 121 117 113 110 111 113 110 107 105 104 103 103 103 103 103
265 255 240 224 229 230 241 202 174 128 93 107 129 300 329 74 95 111 113 121 119 124 130 136 140 140 140 139 138 139 137 136 134 130 126 121 118 114 109 110 110 107 105 105 103 101 102 103 105
245 223 243 241 240 243 254 272 96 125 115 156 166 154 77 55 78 103 116 123 123 124 126 135 140 142 142 140 139 140 140 137 135 133 129 125 122 116 113 111 112 111 107 106 107 106 106 105 106
241 235 227 234 242 248 253 250 145 172 167 185 211 180 112 84 91 106 121 124 124 124 125 137 138 141 144 143 142 140 141 139 136 134 132 128 124 117 115 115 116 116 113 111 111 110 110 110 110
232 235 230 233 239 236 230 223 223 217 196 176 202 216 135 125 115 122 126 124 124 123 126 138 140 139 140 142 142 142 142 142 138 135 134 130 126 121 118 121 123 121 120 117 116 116 115 115 115
241 239 241 246 248 236 213 196 214 222 214 183 178 200 143 133 119 126 126 126 123 124 130 137 142 140 140 140 144 145 144 143 141 137 134 130 126 126 125 126 125 126 126 124 121 121 120 119 117
258 267 248 243 247 250 218 193 213 227 230 180 174 203 153 139 124 125 126 124 121 128 136 143 146 144 142 140 144 144 146 146 143 139 135 132 129 132 131 130 129 131 131 130 127 125 127 124 121
256 244 242 239 243 249 201 204 204 208 241 224 176 62 112 124 125 128 129 130 135 142 146 149 149 147 148 149 146 143 146 146 142 141 142 143 143 138 133 131 134 136 137 137 135 132 133 131 128
217 233 237 254 283 285 249 223 192 192 211 211 182 130 124 134 147 156 161 163 161 160 161 157 153 150 150 152 150 152 150 151 153 150 154 156 142 133 130 130 133 136 141 144 146 147 144 140 130
215 234 251 262 286 305 283 256 218 216 222 209 192 163 150 155 164 175 181 178 174 170 166 161 157 151 150 146 154 157 156 161 160 159 162 149 136 132 131 132 136 139 145 146 150 152 145 131 124
236 241 251 258 270 277 274 259 241 232 236 216 187 169 167 178 183 186 186 183 177 174 169 161 157 155 155 151 150 149 146 156 153 159 162 148 136 136 138 139 147 147 147 146 148 146 141 134 128
236 247 250 254 258 258 265 257 254 249 249 261 229 181 181 190 192 192 185 181 176 177 170 164 160 164 161 154 156 153 151 156 154 156 160 149 140 145 139 141 149 147 148 146 143 139 134 124 122
245 250 255 250 246 249 249 252 247 242 228 228 211 206 197 195 194 192 187 184 183 179 172 165 165 168 162 161 162 156 152 151 151 155 155 154 147 138 137 138 141 135 138 138 137 137 127 116 112
260 262 257 244 233 233 240 249 237 238 230 227 219 210 201 199 196 197 190 185 184 179 170 170 172 167 168 167 165 153 150 153 151 156 159 157 151 142 139 139 136 134 139 136 134 124 120 117 110
247 245 246 231 216 213 210 246 234 219 221 224 217 212 203 201 197 197 188 182 179 174 171 174 175 166 169 167 161 151 153 151 150 157 159 158 156 155 145 140 139 141 139 133 136 135 130 125 119
226 232 234 233 207 204 209 245 234 210 217 220 215 210 200 196 198 195 188 180 175 173 171 172 168 166 167 162 160 157 157 152 151 157 156 158 158 160 149 141 142 144 137 137 149 140 141 130 118
219 228 239 235 205 208 220 239 242 230 223 222 217 211 203 197 200 191 181 172 171 170 167 168 166 164 163 156 157 154 151 150 149 153 154 156 158 157 148 142 146 145 143 149 145 139 133 129 125
251 248 250 250 227 218 229 239 241 235 230 225 220 215 208 200 192 179 168 164 163 164 166 167 165 167 161 158 162 162 164 162 160 152 156 159 159 156 150 145 149 149 159 162 154 142 137 130 120
253 257 259 261 238 230 240 244 241 231 227 219 217 215 205 197 188 172 160 157 164 167 168 167 165 162 161 161 161 159 153 159 162 152 155 159 160 158 158 153 158 156 158 159 155 147 140 143 145
244 246 252 257 269 245 249 255 237 230 225 217 215 205 193 192 187 171 157 159 164 168 168 169 164 158 157 153 149 144 135 134 149 156 162 161 162 162 161 158 157 159 165 166 164 158 152 162 176
245 251 260 262 249 243 211 249 234 208 214 211 206 196 186 185 181 167 160 159 163 162 156 159 158 156 156 156 159 159 162 166 171 164 166 162 161 159 161 162 160 165 166 169 172 165 161 162 171
254 268 260 257 250 259 227 237 249 204 208 200 190 184 176 172 165 161 156 155 154 154 155 157 153 151 154 161 162 162 164 166 158 153 156 163 160 158 163 164 163 168 169 171 172 165 165 170 171
261 261 253 248 238 242 222 216 244 213 199 184 176 166 156 155 147 142 140 138 137 139 147 153 152 156 156 158 167 168 168 166 161 159 163 166 162 163 163 165 168 170 169 171 169 169 170 173 167
238 200 194 200 212 233 208 210 232 226 153 151 152 154 146 138 128 122 122 128 130 139 144 155 158 161 159 160 169 174 173 171 170 167 169 166 164 169 174 168 168 167 165 165 161 162 168 167 164
229 216 205 207 210 213 190 204 200 79 87 98 101 105 108 109 110 115 114 122 132 141 147 158 163 164 161 165 169 170 169 167 169 169 167 169 169 171 165 162 162 160 160 159 154 154 162 160 161
223 235 264 287 272 238 196 172 147 86 83 86 86 88 89 99 100 99 93 108 120 136 147 159 161 163 165 166 164 163 163 162 165 161 157 157 155 157 155 156 151 151 154 153 149 156 160 158 158
283 275 251 233 237 234 201 184 187 144 110 102 107 95 85 92 88 93 91 86 99 124 146 143 150 165 162 160 161 160 161 159 153 150 150 149 148 143 146 148 148 148 149 150 152 151 154 157 157
287 262 267 255 262 245 202 114 21 76 97 97 86 72 68 73 71 66 70 78 91 99 119 126 124 133 142 149 146 146 149 149 144 146 149 148 142 143 148 150 149 151 152 150 152 154 158 160 160
5 319 270 222 262 265 247 70 25 45 57 63 65 59 55 58 54 46 53 57 61 63 92 106 110 117 129 135 140 144 144 143 145 145 144 142 143 145 148 148 150 154 154 153 156 161 162 163 167
Height
1495 1497 1499 1503 1505 1504 1499 1486 1477 1477 1478 1480 1481 1482 1483 1486 1491 1503 1503 1503 1503 1503 1506 1509 1511 1514 1516 1519 1521 1523 1525 1527 1529 1530 1532 1533 1535 1536 1538 1539 1541 1542 1543 1544 1546 1547 1548 1549 1550
1495 1498 1501 1502 1503 1504 1493 1481 1478 1477 1479 1481 1484 1485 1486 1490 1493 1497 1500 1502 1503 1503 1505 1508 1511 1514 1516 1519 1521 1523 1525 1527 1529 1530 1532 1534 1535 1537 1538 1540 1541 1543 1544 1545 1547 1548 1549 1550 1551
1495 1498 1500 1498 1496 1493 1484 1474 1475 1476 1479 1483 1486 1487 1489 1492 1494 1497 1499 1501 1502 1503 1505 1508 1511 1513 1516 1518 1521 1523 1525 1527 1529 1530 1532 1534 1535 1537 1539 1540 1542 1543 1545 1546 1547 1549 1550 1551 1553
1496 1499 1498 1496 1491 1481 1476 1474 1473 1477 1481 1484 1486 1489 1490 1493 1494 1496 1498 1501 1502 1503 1505 1507 1510 1513 1515 1518 1520 1522 1524 1526 1528 1530 1532 1534 1535 1537 1539 1540 1542 1544 1545 1546 1548 1549 1551 1552 1553
1496 1496 1495 1492 1485 1477 1473 1473 1474 1477 1480 1483 1486 1487 1490 1493 1494 1495 1498 1500 1502 1503 1504 1507 1509 1512 1515 1517 1519 1522 1524 1526 1528 1530 1531 1533 1535 1537 1539 1540 1542 1544 1545 1547 1548 1550 1551 1553 1554
1495 1492 1493 1489 1480 1473 1472 1473 1475 1476 1479 1482 1485 1486 1490 1492 1493 1495 1497 1500 1501 1502 1503 1506 1509 1511 1514 1516 1518 1521 1523 1525 1527 1529 1531 1533 1535 1536 1538 1540 1542 1544 1545 1547 1548 1550 1551 1553 1555
1493 1489 1486 1479 1475 1471 1469 1471 1474 1475 1477 1480 1483 1485 1488 1491 1492 1494 1497 1499 1501 1502 1503 1505 1508 1510 1513 1515 1517 1520 1522 1524 1526 1528 1530 1532 1534 1536 1538 1540 1542 1543 1545 1547 1548 1550 1552 1553 1555
1489 1486 1480 1476 1474 1470 1468 1470 1472 1475 1477 1479 1482 1483 1486 1488 1490 1493 1495 1498 1500 1501 1502 1504 1507 1509 1511 1514 1516 1518 1521 1523 1525 1527 1529 1531 1533 1535 1537 1539 1541 1543 1545 1547 1548 1550 1552 1554 1555
1487 1487 1478 1471 1470 1468 1468 1470 1472 1474 1476 1478 1480 1482 1483 1485 1488 1491 1494 1496 1498 1500 1501 1503 1505 1507 1510 1512 1515 1517 1519 1522 1524 1526 1528 1530 1532 1534 1536 1538 1540 1542 1544 1546 1548 1550 1552 1553 1555
1483 1481 1470 1468 1467 1467 1467 1469 1471 1474 1475 1477 1479 1481 1483 1484 1486 1488 1491 1493 1495 1498 1500 1502 1504 1506 1508 1511 1513 1516 1518 1520 1522 1525 1527 1529 1531 1533 1535 1537 1540 1542 1544 1545 1548 1550 1551 1553 1555
1475 1471 1467 1468 1468 1468 1468 1469 1470 1472 1473 1474 1476 1478 1481 1482 1484 1487 1489 1491 1493 1496 1498 1500 1502 1504 1506 1509 1511 1514 1516 1518 1521 1523 1525 1528 1530 1532 1534 1536 1539 1541 1543 1545 1547 1549 1551 1553 1555
1470 1466 1467 1467 1468 1468 1469 1469 1469 1469 1470 1472 1474 1475 1477 1480 1482 1484 1486 1489 1491 1493 1496 1498 1500 1502 1504 1507 1509 1512 1514 1516 1519 1521 1524 1526 1528 1530 1533 1535 1537 1540 1542 1544 1546 1548 1550 1552 1554
1467 1464 1465 1466 1467 1467 1468 1467 1468 1467 1468 1470 1471 1473 1474 1476 1479 1481 1484 1486 1488 1491 1493 1495 1498 1500 1502 1504 1507 1510 1512 1514 1517 1519 1522 1524 1526 1529 1531 1534 1536 1538 1541 1543 1545 1547 1550 1552 1553
1462 1463 1463 1463 1464 1465 1466 1465 1466 1462 1466 1467 1468 1469 1471 1473 1476 1478 1480 1483 1485 1487 1490 1493 1495 1497 1500 1502 1505 1507 1510 1512 1515 1517 1520 1522 1524 1527 1530 1532 1534 1537 1539 1542 1544 1546 1549 1550 1552
1462 1462 1460 1459 1460 1462 1465 1463 1459 1460 1463 1463 1465 1466 1468 1470 1472 1474 1476 1479 1481 1484 1486 1489 1492 1494 1497 1499 1502 1505 1507 1510 1513 1515 1518 1521 1523 1525 1528 1530 1533 1535 1538 1540 1543 1545 1547 1549 1551
1461 1461 1460 1453 1455 1457 1465 1459 1453 1456 1458 1459 1461 1463 1465 1467 1469 1471 1473 1475 1478 1481 1483 1486 1489 1491 1494 1497 1499 1502 1505 1507 1510 1513 1515 1518 1521 1523 1526 1529 1531 1533 1536 1539 1541 1543 1545 1547 1549
1459 1458 1454 1450 1449 1451 1457 1454 1450 1452 1453 1454 1457 1459 1461 1463 1465 1467 1469 1472 1474 1477 1479 1482 1485 1488 1491 1494 1496 1499 1502 1505 1507 1510 1513 1515 1518 1521 1524 1526 1529 1531 1534 1536 1539 1541 1543 1545 1548
1453 1451 1447 1446 1443 1447 1450 1449 1449 1448 1449 1450 1452 1455 1457 1459 1461 1464 1466 1468 1471 1473 1476 1479 1482 1485 1488 1491 1493 1496 1499 1501 1504 1507 1510 1513 1515 1518 1521 1524 1527 1529 1531 1534 1537 1539 1541 1543 1546
1446 1446 1445 1441 1439 1443 1445 1445 1445 1445 1446 1446 1448 1450 1453 1455 1458 1460 1462 1464 1467 1470 1472 1475 1478 1481 1484 1487 1490 1492 1495 1498 1501 1504 1507 1510 1513 1515 1518 1521 1524 1526 1529 1531 1534 1536 1538 1541 1543
1446 1446 1444 1440 1438 1440 1441 1441 1440 1440 1441 1442 1444 1446 1449 1451 1454 1456 1458 1461 1463 1466 1468 1471 1474 1477 1480 1484 1487 1490 1492 1495 1499 1502 1504 1507 1510 1512 1515 1518 1521 1523 1526 1529 1531 1534 1535 1538 1541
1444 1445 1443 1442 1440 1438 1441 1441 1437 1435 1436 1438 1440 1442 1445 1448 1450 1453 1455 1457 1460 1462 1465 1467 1471 1474 1477 1481 1484 1487 1490 1493 1495 1498 1501 1504 1507 1509 1512 1515 1518 1520 1523 1526 1528 1531 1532 1535 1538
1443 1439 1440 1441 1445 1445 1442 1447 1433 1431 1432 1433 1436 1438 1441 1444 1448 1450 1452 1454 1457 1459 1462 1464 1467 1471 1474 1477 1480 1483 1485 1488 1491 1494 1497 1501 1504 1506 1509 1512 1515 1517 1520 1523 1525 1528 1530 1533 1535
1440 1439 1440 1440 1443 1446 1441 1445 1434 1425 1429 1430 1433 1435 1438 1442 1445 1447 1449 1452 1454 1457 1459 1461 1464 1467 1471 1474 1477 1480 1483 1485 1488 1492 1494 1497 1500 1503 1506 1509 1511 1514 1516 1519 1522 1524 1527 1530 1532
1439 1439 1439 1440 1445 1449 1437 1440 1434 1427 1425 1427 1430 1433 1436 1439 1442 1445 1447 1450 1452 1454 1456 1459 1461 1464 1467 1470 1473 1476 1479 1482 1485 1488 1490 1493 1497 1500 1503 1506 1508 1511 1513 1516 1518 1521 1524 1526 1529
1441 1445 1447 1448 1448 1441 1427 1432 1431 1422 1421 1424 1428 1431 1435 1438 1440 1443 1445 1447 1449 1451 1453 1456 1458 1461 1463 1466 1470 1472 1475 1478 1481 1484 1487 1490 1492 1495 1499 1502 1504 1507 1509 1512 1515 1517 1520 1523 1525
1442 1442 1445 1444 1438 1431 1425 1430 1430 1422 1422 1424 1427 1431 1434 1437 1439 1442 1444 1445 1447 1449 1451 1453 1455 1457 1460 1463 1466 1469 1472 1475 1478 1481 1483 1486 1489 1492 1495 1498 1501 1503 1506 1509 1511 1514 1517 1519 1522
1441 1441 1438 1440 1435 1434 1428 1426 1426 1423 1425 1427 1429 1431 1434 1437 1439 1441 1443 1444 1445 1447 1448 1450 1453 1455 1457 1460 1463 1465 1468 1471 1474 1477 1480 1483 1486 1489 1492 1495 1498 1500 1503 1505 1508 1510 1513 1515 1518
1441 1440 1442 1443 1438 1432 1424 1426 1431 1429 1428 1429 1431 1433 1435 1437 1439 1440 1442 1443 1444 1445 1447 1448 1450 1452 1454 1457 1459 1462 1465 1468 1471 1474 1477 1480 1483 1486 1488 1491 1494 1497 1499 1502 1504 1507 1509 1511 1514
1444 1444 1443 1441 1437 1436 1431 1437 1429 1428 1429 1431 1433 1434 1436 1437 1439 1440 1441 1442 1442 1443 1445 1446 1448 1449 1452 1454 1457 1460 1462 1465 1468 1471 1474 1477 1480 1483 1485 1488 1490 1493 1495 1498 1500 1503 1506 1508 1510
1446 1446 1446 1448 1444 1435 1436 1444 1432 1431 1432 1433 1435 1436 1437 1438 1439 1440 1441 1441 1441 1442 1443 1444 1446 1447 1449 1452 1455 1457 1460 1463 1466 1469 1472 1474 1477 1480 1483 1485 1487 1490 1492 1495 1497 1500 1502 1504 1506